Adelanto, California, United States (92301)
Lat: 34.58N, Lon: 117.41W
Wx Zone: CAZ060
Local Info
Past Weather Observations for Yesterday

NOTE: This archive is for the closest National Weather Service station to Adelanto. Information may differ from the station used for current weather conditions.

Time Weather Temperature Dewpoint Humidity Pressure Winds Precip Visibility
23:55
Clear
52°F / 11°C 9°F / -13°C 17% 30.09 in
(1019 mb)
SW 4.6 mph
(SW 7 kph)
- 10SM
23:35
Clear
54°F / 12°C 10°F / -12°C 18% 30.09 in
(1019 mb)
SW 5.8 mph
(SW 9 kph)
- 10SM
23:15
Clear
55°F / 13°C 10°F / -12°C 16% 30.09 in
(1019 mb)
S 6.9 mph
(S 11 kph)
- 10SM
22:55
Clear
54°F / 12°C 9°F / -13°C 16% 30.09 in
(1019 mb)
S 5.8 mph
(S 9 kph)
- 10SM
22:35
Clear
55°F / 13°C 9°F / -13°C 15% 30.09 in
(1019 mb)
S 3.5 mph
(S 6 kph)
- 10SM
22:15
Clear
55°F / 13°C 9°F / -13°C 15% 30.09 in
(1019 mb)
S 4.6 mph
(S 7 kph)
- 10SM
21:55
Clear
55°F / 13°C 7°F / -14°C 14% 30.09 in
(1019 mb)
SW 5.8 mph
(SW 9 kph)
- 10SM
21:35
Clear
57°F / 14°C 9°F / -13°C 14% 30.12 in
(1020 mb)
SW 4.6 mph
(SW 7 kph)
- 7SM
21:15
Clear
57°F / 14°C 9°F / -13°C 14% 30.12 in
(1020 mb)
SW 4.6 mph
(SW 7 kph)
- 10SM
20:55
Clear
66°F / 19°C 10°F / -12°C 11% 30.09 in
(1019 mb)
Calm - 10SM
20:35
Clear
64°F / 18°C 9°F / -13°C 11% 30.09 in
(1019 mb)
NE 4.6 mph
(NE 7 kph)
- 10SM
20:15
Clear
64°F / 18°C 9°F / -13°C 11% 30.09 in
(1019 mb)
ENE 5.8 mph
(ENE 9 kph)
- 10SM
19:55
Clear
64°F / 18°C 10°F / -12°C 12% 30.09 in
(1019 mb)
NE 4.6 mph
(NE 7 kph)
- 10SM
19:35
Clear
66°F / 19°C 10°F / -12°C 11% 30.09 in
(1019 mb)
NE 5.8 mph
(NE 9 kph)
- 10SM
19:15
Clear
66°F / 19°C 10°F / -12°C 11% 30.09 in
(1019 mb)
NE 6.9 mph
(NE 11 kph)
- 10SM
18:55
Clear
66°F / 19°C 10°F / -12°C 11% 30.09 in
(1019 mb)
NNE 6.9 mph
(NNE 11 kph)
- 10SM
18:35
Clear
70°F / 21°C 10°F / -12°C 10% 30.09 in
(1019 mb)
N 6.9 mph
(N 11 kph)
- 10SM
18:15
Clear
72°F / 22°C 10°F / -12°C 9% 30.09 in
(1019 mb)
N 6.9 mph
(N 11 kph)
- 10SM
17:55
Clear
73°F / 23°C 10°F / -12°C 9% 30.09 in
(1019 mb)
N 8.1 mph
(N 13 kph)
- 10SM
17:35
Clear
73°F / 23°C 10°F / -12°C 9% 30.09 in
(1019 mb)
N 9.2 mph
(N 15 kph)
- 10SM
17:15
Clear
73°F / 23°C 10°F / -12°C 9% 30.09 in
(1019 mb)
N 9.2 mph
(N 15 kph)
- 10SM
16:55
Clear
75°F / 24°C 10°F / -12°C 8% 30.09 in
(1019 mb)
N 10.4 mph
(N 17 kph)
- 10SM
16:35
Clear
75°F / 24°C 10°F / -12°C 8% 30.09 in
(1019 mb)
N 11.5 mph
(N 19 kph)
- 10SM
16:15
Clear
75°F / 24°C 10°F / -12°C 8% 30.09 in
(1019 mb)
N 10.4 mph
(N 17 kph)
- 10SM
15:55
Clear
75°F / 24°C 12°F / -11°C 9% 30.09 in
(1019 mb)
NE 11.5 mph
(NE 19 kph)
- 10SM
15:35
Clear
77°F / 25°C 12°F / -11°C 8% 30.09 in
(1019 mb)
NE 12.7 mph
(NE 20 kph)
- 10SM
15:15
Clear
77°F / 25°C 12°F / -11°C 8% 30.09 in
(1019 mb)
NNE 11.5 mph
(NNE 19 kph)
- 10SM
14:55
Partly Cloudy
77°F / 25°C 12°F / -11°C 8% 30.12 in
(1020 mb)
NE 11.5 mph
(NE 19 kph)
- 10SM
14:35
Clear
77°F / 25°C 12°F / -11°C 8% 30.12 in
(1020 mb)
NNE 12.7 mph
(NNE 20 kph)
- 10SM
14:15
Clear
75°F / 24°C 12°F / -11°C 9% 30.12 in
(1020 mb)
NNE 6.9 mph
(NNE 11 kph)
- 10SM
13:55
Partly Cloudy
75°F / 24°C 12°F / -11°C 9% 30.12 in
(1020 mb)
NE 13.8 mph
(NE 22 kph)
- 10SM
13:35
Clear
77°F / 25°C 12°F / -11°C 8% 30.15 in
(1021 mb)
NE 8.1 mph
(NE 13 kph)
- 10SM
13:15
Clear
75°F / 24°C 12°F / -11°C 9% 30.15 in
(1021 mb)
NE 11.5 mph
(NE 19 kph)
- 10SM
12:55
Partly Cloudy
75°F / 24°C 10°F / -12°C 8% 30.15 in
(1021 mb)
NE 15 mph
(NE 24 kph)
- 10SM
12:35
Partly Cloudy
75°F / 24°C 10°F / -12°C 8% 30.15 in
(1021 mb)
NE 15 mph
(NE 24 kph)
- 10SM
12:15
Partly Cloudy
75°F / 24°C 12°F / -11°C 9% 30.15 in
(1021 mb)
NE 18.4 mph
(NE 30 kph)
- 10SM
11:55
Partly Cloudy
75°F / 24°C 10°F / -12°C 8% 30.15 in
(1021 mb)
NE 15 mph
(NE 24 kph)
- 10SM
11:35
Partly Cloudy
73°F / 23°C 10°F / -12°C 9% 30.18 in
(1022 mb)
E 9.2 mph
(E 15 kph)
- 10SM
11:15
Partly Cloudy
73°F / 23°C 10°F / -12°C 9% 30.18 in
(1022 mb)
SE 11.5 mph
(SE 19 kph)
- 10SM
10:55
Clear
72°F / 22°C 10°F / -12°C 9% 30.18 in
(1022 mb)
E 8.1 mph
(E 13 kph)
- 10SM
10:35
Partly Cloudy
72°F / 22°C 10°F / -12°C 9% 30.18 in
(1022 mb)
E 8.1 mph
(E 13 kph)
- 10SM
10:15
Partly Cloudy
72°F / 22°C 10°F / -12°C 9% 30.18 in
(1022 mb)
ESE 10.4 mph
(ESE 17 kph)
- 10SM
09:55
Partly Cloudy
70°F / 21°C 9°F / -13°C 9% 30.21 in
(1023 mb)
ESE 5.8 mph
(ESE 9 kph)
- 10SM
09:35
Partly Cloudy
70°F / 21°C 9°F / -13°C 9% 30.21 in
(1023 mb)
E 11.5 mph
(E 19 kph)
- 10SM
08:55
Clear
66°F / 19°C 14°F / -10°C 13% 30.21 in
(1023 mb)
Calm - 10SM
08:35
Clear
66°F / 19°C 16°F / -9°C 14% 30.18 in
(1022 mb)
S 5.8 mph
(S 9 kph)
- 10SM
08:15
Clear
64°F / 18°C 16°F / -9°C 15% 30.18 in
(1022 mb)
ENE 8.1 mph
(ENE 13 kph)
- 10SM
07:55
Fair
61°F / 16°C 27°F / -3°C 27% 30.21 in
(1023 mb)
N 3.5 mph
(N 6 kph)
- 10SM
07:35
Clear
57°F / 14°C 28°F / -2°C 33% 30.21 in
(1023 mb)
Calm - 10SM
07:15
Clear
55°F / 13°C 30°F / -1°C 38% 30.18 in
(1022 mb)
Calm - 10SM
06:55
Fair
54°F / 12°C 32°F / 0°C 44% 30.18 in
(1022 mb)
Calm - 10SM
06:35
Fair
50°F / 10°C 32°F / 0°C 50% 30.18 in
(1022 mb)
Calm - 10SM
06:15
Fair
48°F / 9°C 32°F / 0°C 54% 30.18 in
(1022 mb)
N 3.5 mph
(N 6 kph)
- 10SM
05:55
Fair
46°F / 8°C 32°F / 0°C 57% 30.15 in
(1021 mb)
N 5.8 mph
(N 9 kph)
- 10SM
05:35
Fair
46°F / 8°C 32°F / 0°C 57% 30.15 in
(1021 mb)
NW 3.5 mph
(NW 6 kph)
- 10SM
05:15
Fair
45°F / 7°C 30°F / -1°C 57% 30.15 in
(1021 mb)
Calm - 10SM
04:55
Fair
45°F / 7°C 32°F / 0°C 61% 30.15 in
(1021 mb)
SSW 3.5 mph
(SSW 6 kph)
- 10SM
04:35
Fair
43°F / 6°C 32°F / 0°C 66% 30.12 in
(1020 mb)
Calm - 10SM
04:15
Fair
48°F / 9°C 36°F / 2°C 62% 30.12 in
(1020 mb)
Calm - 10SM
03:55
Fair
46°F / 8°C 34°F / 1°C 62% 30.12 in
(1020 mb)
Calm - 10SM
03:35
Fair
46°F / 8°C 36°F / 2°C 66% 30.09 in
(1019 mb)
Calm - 10SM
03:15
Fair
46°F / 8°C 37°F / 3°C 71% 30.09 in
(1019 mb)
Calm - 10SM
02:55
Fair
46°F / 8°C 37°F / 3°C 71% 30.09 in
(1019 mb)
SW 5.8 mph
(SW 9 kph)
- 10SM
02:35
Fair
48°F / 9°C 39°F / 4°C 71% 30.09 in
(1019 mb)
S 3.5 mph
(S 6 kph)
- 10SM
02:15
Clear
48°F / 9°C 39°F / 4°C 71% 30.09 in
(1019 mb)
S 3.5 mph
(S 6 kph)
- 10SM
01:55
Clear
52°F / 11°C 39°F / 4°C 62% 30.09 in
(1019 mb)
Calm - 10SM
01:35
Clear
52°F / 11°C 39°F / 4°C 62% 30.06 in
(1018 mb)
S 3.5 mph
(S 6 kph)
- 10SM
01:15
Fair
54°F / 12°C 41°F / 5°C 63% 30.06 in
(1018 mb)
S 4.6 mph
(S 7 kph)
- 10SM
00:55
Fair
55°F / 13°C 41°F / 5°C 59% 30.06 in
(1018 mb)
S 5.8 mph
(S 9 kph)
- 10SM
00:35
Fair
55°F / 13°C 41°F / 5°C 59% 30.06 in
(1018 mb)
Calm - 10SM
00:15
Fair
55°F / 13°C 41°F / 5°C 59% 30.06 in
(1018 mb)
S 4.6 mph
(S 7 kph)
- 10SM
Time Weather Temperature Dewpoint Humidity Pressure Winds Precip Visibility


Weather for websites

WeatherForYou.com, LLC is not responsible for any damages or problems caused by this service. Current weather conditions are obtained from the closest station including government and personal stations which may have varying degrees of accuracy. Weather forecasts are derived from the NOAA NDFD. Like all things, this site belongs to Jesus Christ... He just trusts me to maintain it. If you have any questions or comments email webmaster@weatherforyou.com

Copyright © 2014, WeatherForYou.com LLC. All rights reserved.